Weather History for KHGR - January, 2015

Change the Weather History Date:

Friday, January 9, 2015

  Actual Average Record
Temperature  
Mean Temperature 25 °F 30 °F  
Max Temperature 32 °F 38 °F 63 °F (2006)
Min Temperature 18 °F 23 °F 9 °F (2004)
Degree Days  
Heating Degree Days 40 35  
Month to date heating degree days 328 308  
Since 1 July heating degree days 2104 2272  
Cooling Degree Days 0 0  
Month to date cooling degree days 0 0  
Year to date cooling degree days 0 0  
Moisture  
Dew Point 5 °F    
Average Humidity 41    
Maximum Humidity 50    
Minimum Humidity 31    
Precipitation  
Precipitation 0.00 in 0.08 in 0.63 in (1999)
Month to date precipitation 0.61 0.82  
Year to date precipitation 0.61 0.82  
Sea Level Pressure  
Sea Level Pressure 30.15 in    
Wind  
Wind Speed 14 mph (WSW)    
Max Wind Speed 30 mph    
Max Gust Speed 36 mph    
Visibility 10 miles    
Events      
T = Trace of Precipitation, MM = Missing Value Source: NWS Daily Summary

Daily Weather History Graph

Daily Weather History Graph

Search for Another Location

Airport or City:

Trip Planner

Search our weather history database for the weather conditions in past years. The results will help you decide how hot, cold, wet, or windy it might be!

Date:

Astronomy

Jan. 09, 2015 Rise Set
Actual Time 7:31 AM EST 5:04 PM EST
Civil Twilight 7:01 AM EST 5:34 PM EST
Nautical Twilight 6:28 AM EST 6:07 PM EST
Astronomical Twilight 5:55 AM EST 6:40 PM EST
Moon 9:35 PM EST (1/9) 9:47 AM EST (1/9)
Length of Visible Light 10h 32m
Length of Day
9h 32m
Waning Gibbous, 82% of the Moon is Illuminated
Jan 9
Waning Gibbous
Jan 13
Last Quarter
Jan 20
New
Jan 26
First Quarter
Feb 3
Full

Hourly Weather History & Observations

Time (EST) Temp. Windchill Dew Point Humidity Pressure Visibility Wind Dir Wind Speed Gust Speed Precip Events Conditions
12:53 AM 21.9 °F 11.7 °F 1.9 °F 42% 30.09 in 10.0 mi South 9.2 mph - N/A   Overcast
1:53 AM 21.9 °F 10.4 °F 1.0 °F 40% 30.05 in 10.0 mi South 11.5 mph - N/A   Overcast
2:53 AM 21.9 °F 11.0 °F 1.9 °F 42% 30.03 in 10.0 mi South 10.4 mph - N/A   Overcast
3:53 AM 23.0 °F 13.9 °F 3.0 °F 42% 30.02 in 10.0 mi South 8.1 mph - N/A   Overcast
4:53 AM 23.0 °F 15.8 °F 3.9 °F 44% 30.03 in 10.0 mi South 5.8 mph - N/A   Overcast
5:53 AM 21.9 °F 13.4 °F 3.9 °F 46% 30.04 in 10.0 mi South 6.9 mph - N/A   Overcast
6:53 AM 25.0 °F 16.3 °F 6.1 °F 45% 30.05 in 10.0 mi South 8.1 mph - N/A   Overcast
7:53 AM 24.1 °F 19.7 °F 8.1 °F 51% 30.08 in 10.0 mi South 3.5 mph - N/A   Overcast
8:53 AM 28.9 °F 19.2 °F 9.0 °F 43% 30.10 in 10.0 mi West 11.5 mph 19.6 mph N/A   Overcast
9:53 AM 30.0 °F 20.5 °F 9.0 °F 41% 30.11 in 10.0 mi West 11.5 mph 24.2 mph N/A   Overcast
10:53 AM 30.0 °F 17.9 °F 10.0 °F 43% 30.11 in 10.0 mi West 18.4 mph 29.9 mph N/A   Overcast
11:53 AM 30.0 °F 17.5 °F 12.0 °F 47% 30.11 in 10.0 mi West 19.6 mph 25.3 mph N/A   Overcast
12:53 PM 30.0 °F 18.3 °F 10.0 °F 43% 30.10 in 10.0 mi WSW 17.3 mph 32.2 mph N/A   Overcast
1:53 PM 30.9 °F 18.1 °F 9.0 °F 40% 30.12 in 10.0 mi West 21.9 mph 28.8 mph N/A   Overcast
2:53 PM 30.0 °F 18.3 °F 12.0 °F 47% 30.14 in 10.0 mi West 17.3 mph 27.6 mph N/A   Mostly Cloudy
3:53 PM 28.9 °F 14.8 °F 6.1 °F 38% 30.15 in 10.0 mi West 24.2 mph 32.2 mph N/A   Clear
4:53 PM 27.0 °F 14.7 °F 7.0 °F 43% 30.18 in 10.0 mi West 16.1 mph 26.5 mph N/A   Clear
5:53 PM 25.0 °F 14.2 °F 5.0 °F 43% 30.22 in 10.0 mi West 11.5 mph - N/A   Clear
6:53 PM 24.1 °F 12.5 °F 6.1 °F 46% 30.24 in 10.0 mi West 12.7 mph 21.9 mph N/A   Clear
7:53 PM 24.1 °F 12.5 °F 3.0 °F 40% 30.26 in 10.0 mi West 12.7 mph 21.9 mph N/A   Clear
8:53 PM 23.0 °F 8.7 °F -0.9 °F 35% 30.28 in 10.0 mi West 18.4 mph - N/A   Clear
9:53 PM 21.9 °F 7.3 °F -6.0 °F 29% 30.30 in 10.0 mi West 18.4 mph 33.4 mph N/A   Clear
10:53 PM 19.9 °F 5.7 °F -7.1 °F 30% 30.33 in 10.0 mi West 16.1 mph 27.6 mph N/A   Clear
11:53 PM 18.0 °F 2.6 °F -6.0 °F 35% 30.36 in 10.0 mi West 17.3 mph 27.6 mph N/A   Clear